Weather History for Cecil Field, FL

Change the Weather History Date:

Saturday, September 7, 2013

  Actual Average (KJAX) Record (KJAX)
Temperature  
Mean Temperature 76 °F 80 °F  
Max Temperature 86 °F 88 °F 96 °F (1951)
Min Temperature 66 °F 71 °F 63 °F (1997)
Degree Days  
Heating Degree Days 0 0  
Month to date heating degree days 0  
Since 1 July heating degree days 0  
Cooling Degree Days 11 15  
Month to date cooling degree days 106  
Year to date cooling degree days 2096  
Growing Degree Days 26 (Base 50)    
Moisture  
Dew Point 70 °F    
Average Humidity 92    
Maximum Humidity 100    
Minimum Humidity 58    
Precipitation  
Precipitation 0.00 in 0.29 in 3.85 in (1976)
Month to date precipitation 2.02  
Year to date precipitation 37.38  
Snow  
Snow 0.00 in 0.00 in 0.00 in (2002)
Month to date snowfall 0.0  
Since 1 July snowfall 0.0  
Since 1 September snowfall 0.0  
Snow Depth -    
Sea Level Pressure  
Sea Level Pressure 30.02 in    
Wind  
Wind Speed 2 mph (North)    
Max Wind Speed 14 mph    
Max Gust Speed -    
Visibility 7 miles    
Events      
T = Trace of Precipitation, MM = Missing Value Source: NWS Daily Summary

Daily Weather History Graph

Daily Weather History Graph

Search for Another Location

Airport:

Trip Planner

Search our weather history database for the weather conditions in past years. The results will help you decide how hot, cold, wet, or windy it might be!

Date:

Astronomy

Sep. 07, 2013 Rise Set
Actual Time 7:07 AM EDT 7:42 PM EDT
Civil Twilight 6:43 AM EDT 8:06 PM EDT
Nautical Twilight 6:15 AM EDT 8:35 PM EDT
Astronomical Twilight 5:46 AM EDT 9:03 PM EDT
Moon 9:07 AM EDT (9/7) 8:55 PM EDT (9/7)
Length of Visible Light 13h 23m
Length of Day
12h 34m
Waxing Crescent, 5% of the Moon is Illuminated
Sep 7
Waxing Crescent
Sep 12
First Quarter
Sep 19
Full
Sep 26
Last Quarter
Oct 4
New

Hourly Weather History & Observations

Time (EDT) Temp. Heat Index Dew Point Humidity Pressure Visibility Wind Dir Wind Speed Gust Speed Precip Events Conditions
12:15 AM 71.6 °F - 71.6 °F 100% 30.04 in 10.0 mi Calm Calm - N/A   Clear
12:35 AM 71.6 °F - 71.6 °F 100% 30.04 in 10.0 mi WNW 4.6 mph - N/A   Clear
12:55 AM 69.8 °F - 69.8 °F 100% 30.04 in 7.0 mi Calm Calm - N/A   Clear
1:15 AM 69.8 °F - 69.8 °F 100% 30.04 in 6.0 mi Calm Calm - N/A   Clear
1:35 AM 69.8 °F - 69.8 °F 100% 30.05 in 9.0 mi WNW 3.5 mph - N/A   Clear
1:55 AM 69.8 °F - 69.8 °F 100% 30.04 in 8.0 mi West 3.5 mph - N/A   Clear
2:15 AM 69.8 °F - 69.8 °F 100% 30.04 in 8.0 mi Calm Calm - N/A   Clear
2:35 AM 68.0 °F - 68.0 °F 100% 30.03 in 8.0 mi Calm Calm - N/A   Clear
2:55 AM 68.0 °F - 68.0 °F 100% 30.03 in 5.0 mi Calm Calm - N/A   Clear
3:15 AM 68.0 °F - 68.0 °F 100% 30.02 in 7.0 mi Calm Calm - N/A   Clear
3:35 AM 68.0 °F - 68.0 °F 100% 30.02 in 6.0 mi Calm Calm - N/A   Clear
3:55 AM 68.0 °F - 68.0 °F 100% 30.02 in 6.0 mi Calm Calm - N/A   Clear
4:15 AM 68.0 °F - 68.0 °F 100% 30.02 in 5.0 mi Calm Calm - N/A   Clear
4:35 AM 68.0 °F - 68.0 °F 100% 30.02 in 4.0 mi Calm Calm - N/A   Clear
4:55 AM 68.0 °F - 68.0 °F 100% 30.02 in 3.0 mi Calm Calm - N/A   Clear
5:15 AM 66.2 °F - 66.2 °F 100% 30.02 in 1.5 mi Calm Calm - N/A   Clear
5:35 AM 68.0 °F - 68.0 °F 100% 30.02 in 5.0 mi Calm Calm - N/A   Clear
5:55 AM 68.0 °F - 68.0 °F 100% 30.02 in 3.0 mi Calm Calm - N/A   Clear
6:15 AM 68.0 °F - 68.0 °F 100% 30.03 in 4.0 mi Calm Calm - N/A   Clear
6:35 AM 68.0 °F - 68.0 °F 100% 30.03 in 3.0 mi Calm Calm - N/A   Clear
6:50 AM 68.0 °F - 68.0 °F 100% 30.02 in 5.0 mi Calm Calm - N/A   Clear
7:50 AM 69.8 °F - 69.8 °F 100% 30.03 in 5.0 mi North 6.9 mph - N/A   Clear
8:50 AM 73.4 °F - 73.4 °F 100% 30.04 in 7.0 mi North 6.9 mph - N/A   Clear
9:50 AM 77.0 °F - 75.2 °F 94% 30.05 in 7.0 mi North 5.8 mph - N/A   Clear
10:50 AM 82.4 °F 89.5 °F 75.2 °F 79% 30.05 in 7.0 mi NNE 8.1 mph - N/A   Clear
11:50 AM 82.4 °F 88.2 °F 73.4 °F 74% 30.06 in 10.0 mi NNE 9.2 mph - N/A   Mostly Cloudy
12:50 PM 86.0 °F 93.4 °F 73.4 °F 66% 30.04 in 10.0 mi NNE 9.2 mph - N/A   Mostly Cloudy
1:50 PM 86.0 °F 91.8 °F 71.6 °F 62% 30.03 in 10.0 mi ENE 4.6 mph - N/A   Mostly Cloudy
2:50 PM 86.0 °F 91.8 °F 71.6 °F 62% 30.01 in 10.0 mi NNE 13.8 mph - N/A   Scattered Clouds
3:50 PM 84.2 °F 89.6 °F 71.6 °F 66% 29.99 in 10.0 mi NNE 5.8 mph - N/A   Scattered Clouds
4:50 PM 86.0 °F 90.4 °F 69.8 °F 58% 29.97 in 10.0 mi NE 8.1 mph - N/A   Scattered Clouds
5:50 PM 84.2 °F 88.4 °F 69.8 °F 62% 29.97 in 10.0 mi NNE 9.2 mph - N/A   Scattered Clouds
6:50 PM 82.4 °F 86.3 °F 69.8 °F 66% 29.97 in 10.0 mi NE 5.8 mph - N/A   Partly Cloudy
7:50 PM 80.6 °F 84.6 °F 71.6 °F 74% 29.98 in 10.0 mi Calm Calm - N/A   Clear
8:15 PM 77.0 °F - 71.6 °F 83% 30.00 in 10.0 mi Calm Calm - N/A   Clear
8:35 PM 75.2 °F - 71.6 °F 89% 30.00 in 10.0 mi Calm Calm - N/A   Clear
8:55 PM 73.4 °F - 73.4 °F 100% 30.00 in 10.0 mi Calm Calm - N/A   Clear
9:15 PM 73.4 °F - 71.6 °F 94% 30.01 in 9.0 mi Calm Calm - N/A   Clear
9:35 PM 73.4 °F - 73.4 °F 100% 30.01 in 7.0 mi Calm Calm - N/A   Clear
9:55 PM 71.6 °F - 71.6 °F 100% 30.01 in 7.0 mi Calm Calm - N/A   Clear
10:15 PM 71.6 °F - 71.6 °F 100% 30.01 in 7.0 mi Calm Calm - N/A   Clear
10:35 PM 71.6 °F - 71.6 °F 100% 30.01 in 6.0 mi Calm Calm - N/A   Clear
10:55 PM 71.6 °F - 71.6 °F 100% 30.01 in 5.0 mi Calm Calm - N/A   Clear
11:15 PM 71.6 °F - 71.6 °F 100% 30.01 in 5.0 mi Calm Calm - N/A   Clear
11:35 PM 69.8 °F - 69.8 °F 100% 30.01 in 4.0 mi Calm Calm - N/A   Clear
11:55 PM 69.8 °F - 69.8 °F 100% 30.01 in 4.0 mi Calm Calm - N/A   Clear